COSMOS 886 DEB, 14799

Orbit data source: Space-Track

COSMOS 886 DEB, 14799 is space debris in LEO originally from a launch on Mon, 27 Dec 1976 UTC launched from the Tyuratam Missile And Space Complex (TTMTR). Debris objects in space refer to the collection of defunct objects orbiting the Earth. Examples of debris include non-operational satellites, rocket bodies, and fragments generated from explosions, collisions, or faulty payload assembly.

Loading next visibility...
Identifier
14799, 1976-126BR
Orbit
LEO
Country
Flag of CISCIS
Related business
Manufacturer
Unknown
Mission
Spacecraft
Bus & Motor
Unknown
Mass
Unknown
Launch date (UTC)
1976-12-27 (49 years ago)
Launch vehicle
Unknown
Launch site
Tyuratam Missile And Space Complex (TTMTR)
Object type
Payload
Rocket body
Debris
Shape & HBR
Unknown shape, 0.1 m
Radar Cross Section
Small (<0.1 m²)

Expand to show TLE details & history
Last TLE update: 16 hours ago

TLE from 16 hours ago
0 COSMOS 886 DEB
1 14799U 76126BR  26129.85852844  .00000032  00000-0  51025-3 0  9997
2 14799  65.8120 326.5385 0877986  56.9642  49.0212 11.69576238815610
Epoch: 2026-05-09T20:36Z
TLE epoch observation values (Epoch: 2026-05-09T20:36:16.857Z)
Latitude
56.46166°
Longitude
-72.5971°
Altitude
1,395.725 km
Speed
7.355 km/s
True Right ascension
06h 56m 34s
True Declination
56° 18' 58"
Sunlit
Object was in daylight at epoch
Visualization orbit readout
Latitude
Unknown
Longitude
Unknown
Altitude
Unknown
Speed
Unknown
Apparent Right ascension
Unknown
Apparent Declination
Unknown
Sunlit
N/A
Visualization observer readout
Local Sidereal Time
20:32:20
Azimuth
Unknown
Elevation
Unknown
Doppler factor
Unknown
Orbital elements
Apogee altitude
2,538.343 km
Perigee altitude
1,099.006 km
Semi-major axis
8,196.812 km
Eccentricity
0.0878
Inclination
65.812°
RAAN
326.5385°
Arg. of periapsis
56.9642°
True anomaly
57.17595°
Mean anomaly
49.0212°
Eccentric anomaly
53.04089°
Mean motion
2.92466 °/min
Orbital period
123.09 mins
BSTAR
0.00051025
Loading maneuver chart data...
Computing Atmospheric mass density...
Loading historical data...
Loading historical data...
Loading historical data...
Loading historical data...
Loading historical data...
Loading historical data...
Loading historical data...

Documentation

Showing up to 5 results
|